Track ONEWEB-0238 now! 10-day predictions ONEWEB-0238 is classified as:
1 48784U 21045T 22141.25001157 -.00040836 00000-0 -10896+0 0 9990 2 48784 87.9149 195.1787 0001893 105.1369 251.5880 13.15567708 1301